COSMOS 1275 DEB

Satellite information

Favourite Embed

Satellite Type and Status

DEBRISIN ORBIT

Key statistics

Satellite COSMOS 1275 DEB at a glance.

Uptime

16207

Days in orbit

Revolutions

≈ 13.9

Per day

Orbit

LEO

Low Earth Orbit

Inclination

83.1

Latest

Satellite identification and parameters

Extended collection of information and parameters for COSMOS 1275 DEB.

Object identification

Identified? True

Debris? True

Object name: COSMOS 1275 DEB

International designator: 1981-053LC

Object number (NORAD): 17633

Object ID (CCSDS): 17633

Country: COMMONWEALTH OF INDEPENDENT STATES (CIS)

Current information (Y/N): Y

RCS size: SMALL

Orbital parameters

Period: 103.801 minutes

Inclination: 83.0648 deg

SMA: 7316.368 km

Apoapsis: 1053.895 km

Periapsis: 822.572 km

RAAN: 315.2142 deg

Eccentricy: 0.01580854

Argument of periapsis: 4.8088 deg

Mean anomaly: 48.8987 deg

Mean motion: 13.87264947 rev/day

Mean motion (dot): 0.00005631 rev/day2

B* drag term: 0.0043284924 1/REarth

Two-line elements (TLE)

Creation date: Oct. 17, 2025, 5:48 p.m.

Reference frame: TEME

Reference center: EARTH

Epoch: Oct. 17, 2025, 2:23 a.m. UTC

TLE line 0: 0 COSMOS 1275 DEB

TLE line 1: 1 17633U 81053LC 25290.09930894 .00005631 00000-0 43285-2 0 9996

TLE line 2: 2 17633 83.0648 315.2142 0158085 4.8088 48.8987 13.87264947 7602

Live tracking on map

Real-time ground track for satellite COSMOS 1275 DEB.

In-orbit conjunctions

A list of the most updated potential collisions computed for object COSMOS 1275 DEB.

Target Orbit TCA Probability of collision Miss distance Type
METEOR 2-17 DEB LEO 2024-11-10 21:29:56 0.0001422475 854.0 (m) DEBRIS

Associated space launch

Navigation satellite providing location information for the Tsiklon-B navigation system

COSMOS 1275 DEB was lifted into orbit during the mission ‘Kosmos-3M | Parus 27’, on board a Kosmos-3M space rocket.

The launch took place on June 4, 1981, 3:41 p.m. from 132/2.

For more information about the launch, click the button.

Launch to space Kosmos-3M | Parus 27
Kosmos-3M | Parus 27

Agency: N/A

Status: Launch Successful

Launch date: June 4, 1981, 3:41 p.m. UTC

Rocket: Kosmos-3M

Launch pad: 132/2

Location: Plesetsk Cosmodrome, Russian Federation

...

Latest news about this satellite

There are no fresh news available about this satellite. Check back as we update our databases every day.


Newsletter sign-up

Weekly statistics, charts and insights to help you stay on top of the space industry.